User: anonymous   Login
Location: Camp at the Woods
(43.2055°N, 93.0905°W)
Time: 23:23:19
(UTC+00:00)
Language:

SL-16 R/B - Orbit

View from above orbital plane
View from above orbital plane
View from above satellite
View from above satellite

Ground track
Ground track

The orbit data is extracted from the following two-line orbital elements,

1 28353U 04021B   24104.59474699  .00000197  00000-0  12758-3 0  9995
2 28353  70.9992 250.9929 0004770 351.5225   8.5816 14.14392232 24540
Epoch (UTC): 13 April 2024 14:16:26
Eccentricity: 0.0004770
inclination: 70.9992°
perigee height: 841 km
apogee height: 848 km
right ascension of ascending node: 250.9929°
argument of perigee: 351.5225°
revolutions per day: 14.14392232
mean anomaly at epoch: 8.5816°
orbit number at epoch: 2454

The dashed part of the orbit path shows where the satellite is in the earth's shadow,  

DLR